Hourly Data Report for June 04, 2020

FISHER BRANCH (AUT)
MANITOBA
Current Station Operator: ECCC - MSC

51°05'00.100" N
97°33'16.200" W
253.00 m
50309J6
71442
WSZ

Download Data

Hourly Data (June 2020)
Hourly Data Report for June 4, 2020
TIME
LST
Temp Definition
°C
Dew Point Definition
°C
Rel Hum Definition
%
Precip. Amount Definition
mm

Wind Dir Definition
10's deg

Wind Spd Definition
km/h
Visibility Definition
km
Stn Press Definition
kPa
Hmdx Definition


Wind Chill Definition


Weather Definition


00:00 15.8 6.1 53 0.0 29 9   97.28     LegendNANA
01:00 13.7 5.9 59 0.0 27 5   97.28     LegendNANA
02:00 13.0 6.4 64 0.0 23 10   97.31     LegendNANA
03:00 12.8 5.3 60 0.0 24 12   97.29     LegendNANA
04:00 12.2 5.5 64 0.0 21 11   97.25     LegendNANA
05:00 12.4 5.1 61 0.0 22 11   97.25     LegendNANA
06:00 14.7 5.7 55 0.0 23 12   97.23     LegendNANA
07:00 16.5 5.3 47 0.0 24 15   97.23     LegendNANA
08:00 16.5 4.5 45 0.0 25 28   97.23     LegendNANA
09:00 16.8 4.8 45 0.0 26 26   97.24     LegendNANA
10:00 16.0 4.9 47 0.0 25 25   97.30     LegendNANA
11:00 16.4 6.0 50 0.0 26 27   97.36     LegendNANA
12:00 17.4 6.6 49 0.0 26 24   97.38     LegendNANA
13:00 17.1 6.7 51 0.0 27 25   97.41     LegendNANA
14:00 17.7 7.2 50 0.0 27 23   97.43     LegendNANA
15:00 18.4 7.8 50 0.0 28 20   97.42     LegendNANA
16:00 18.7 7.3 47 0.0 26 24   97.42     LegendNANA
17:00 19.8 8.0 46 0.0 26 25   97.42     LegendNANA
18:00 17.8 8.9 56 0.0 29 22   97.50     LegendNANA
19:00 16.5 7.7 56 0.0 28 20   97.53     LegendNANA
20:00 16.0 9.0 63 0.0 29 17   97.55     LegendNANA
21:00 14.8 9.1 69 0.0 28 15   97.61     LegendNANA
22:00 13.0 10.2 83 0.0 32 15   97.70     LegendNANA
23:00 11.2 8.8 85 0.0 32 15   97.76     LegendNANA

Notes on Data Quality.

Legend

  • E = Estimated
  • M = Missing
  • NA = Not Available*
  • [empty] = Indicates an unobserved value
Date modified: